Regional Weather Roundup
Issued by NWS

Home | Current Version | Previous Version | Graphics & Text | Print | Product List | Glossary On
Versions: 1 2 3 4 5 6 7 8 9 10 11 12 13 14 15 16 17 18 19 20 21 22 23 24 25 26 27 28 29 30 31 32 33 34 35 36 37 38 39 40 41 42 43 44 45 46 47 48 49 50
000
ASUS43 KDMX 250204
RWRIA

WEATHER ROUNDUP FOR IOWA
NATIONAL WEATHER SERVICE DES MOINES IA
  ISSUED BY NWS QUAD CITIES IA IL
800 PM CST SAT JAN 24 2015

NOTE: "FAIR" INDICATES FEW OR NO CLOUDS BELOW 12,000 FEET WITH NO
SIGNIFICANT WEATHER AND/OR OBSTRUCTIONS TO VISIBILITY.

* - THESE STATIONS ARE NOT NWS STATIONS...THUS NOT UNDER NWS
QUALITY CONTROL.  THEY ALSO DO NOT REPORT WEATHER SUCH
AS PRECIPITATION OR FOG.

IAZ001>003-012>014-020>022-031>034-043>046-250300-
   NORTHWEST IOWA

CITY           SKY/WX    TMP DP  RH WIND       PRES   REMARKS
CARROLL *      CLOUDY    41  36  81 SW10      29.59F WCI  35
CHEROKEE *     CLOUDY    35  34  97 CALM      29.57F
DENNISON *     CLOUDY    43  34  70 SW3       29.58F
LE MARS *      CLOUDY    37  36  93 CALM      29.57F
ORANGE CITY *  LGT RAIN  39  34  81 CALM      29.56F
SHELDON *      CLOUDY    37  37 100 CALM      29.55F
SIOUX CITY     CLOUDY    44  36  73 SW7       29.57F
SPENCER        LGT RAIN  37  33  85 NW5       29.57F WCI  33
STORM LAKE *   CLOUDY    39  34  81 SW6       29.58F WCI  35
$$

IAZ055>058-069>071-079>083-090>094-250300-
   SOUTHWEST IOWA

CITY           SKY/WX    TMP DP  RH WIND       PRES   REMARKS
ATLANTIC *     CLOUDY    43  32  65 CALM      29.62F
AUDUBON *      LGT RAIN  45  34  65 SW8       29.62F
CLARINDA *     CLOUDY    48  30  49 SW9       29.66F
COUNCIL BLFS * LGT RAIN  46  37  71 W14       29.63S
CRESTON *      CLOUDY    45  30  57 SW6       29.64F
HARLAN *       CLOUDY    43  32  65 SW8       29.65F WCI  38
LAMONI         CLOUDY    48  30  49 SW10      29.64F
RED OAK *      CLOUDY    46  30  53 W8        29.65S
SHENANDOAH *   CLOUDY    46  30  53 W8        29.67R
$$

IAZ047>049-059>061-072>074-084-250300-
   CENTRAL IOWA

CITY           SKY/WX    TMP DP  RH WIND       PRES   REMARKS
AMES           CLOUDY    40  31  70 SW12      29.60F WCI  33
ANKENY *       CLOUDY    46  30  53 SW7       29.61F
BOONE *        CLOUDY    43  32  65 W9        29.58F WCI  37
CHARITON *     CLOUDY    46  30  53 SW9       29.63F
DES MOINES     CLOUDY    44  29  55 SW7       29.62F
GRINNELL *     CLOUDY    40  32  74 S6        29.62F WCI  35
KNOXVILLE *    CLOUDY    46  30  53 SW6       29.61F
MARSHALLTOWN   CLOUDY    36  31  82 SE3       29.60F
PELLA *        CLOUDY    46  31  57 W3        29.63F
PERRY *          N/A     41  34  76 W8        29.60F WCI  36
$$

IAZ004>006-015-016-023>025-035-036-250300-
   NORTH CENTRAL IOWA

CITY           SKY/WX    TMP DP  RH WIND       PRES   REMARKS
ALGONA *       CLOUDY    36  34  93 W7        29.58S WCI  30
CLARION *      CLOUDY    36  36 100 SW5       29.58F WCI  32
ESTHERVILLE    CLOUDY    35  32  88 W7        29.56S WCI  29
FORT DODGE *   CLOUDY    39  32  75 SW8       29.59S WCI  34
MASON CITY     CLOUDY    34  32  92 CALM      29.59F
WEBSTER CITY * CLOUDY    36  36 100 SW7       29.57F WCI  30
IOWA FALLS *   CLOUDY    38  33  81 SW6       29.60F WCI  34
$$

IAZ007>011-017>019-026>030-037>042-050>054-066-250300-
   NORTHEAST IOWA

CITY           SKY/WX    TMP DP  RH WIND       PRES   REMARKS
CEDAR RAPIDS   MOCLDY    38  32  79 SE3       29.62F
CHARLES CITY * CLOUDY    36  36 100 SW5       29.60S WCI  32
CLINTON *      CLOUDY    37  32  81 S6        29.68F WCI  33
DECORAH *      CLOUDY    37  34  87 CALM      29.60R
DUBUQUE        CLOUDY    35  32  88 CALM      29.62
MONTICELLO *   MOCLDY    37  36  93 CALM      29.62F
OELWEIN *      CLOUDY    36  34  93 CALM      29.61S
WATERLOO       PTCLDY    34  32  92 S3        29.61S
$$

IAZ064-065-067-068-078-250300-
   EAST CENTRAL IOWA

CITY           SKY/WX    TMP DP  RH WIND       PRES   REMARKS
DAVENPORT      CLOUDY    37  31  78 S5        29.65F WCI  33
IOWA CITY      MOCLDY    34  30  85 CALM      29.65F
MT. PLEASANT * PTCLDY    38  32  78 S7        29.65F WCI  33
MUSCATINE *    MOCLDY    37  32  81 CALM      29.65F
QUAD CITIES    CLOUDY    37  31  78 CALM      29.65S
$$

IAZ062-063-075>077-085>089-095>099-250300-
   SOUTHEAST IOWA

CITY           SKY/WX    TMP DP  RH WIND       PRES   REMARKS
BURLINGTON     MOCLDY    41  33  73 S7        29.65F WCI  36
FAIRFIELD *    CLOUDY    43  30  61 S6        29.64F WCI  39
FORT MADISON * MOCLDY    45  36  70 S7        29.67F
KEOKUK *       MOCLDY    45  34  65 S6        29.66F
OTTUMWA        CLOUDY    41  29  62 S6        29.63F WCI  37
WASHINGTON *   MOCLDY    37  34  87 S6        29.64F WCI  33
$$

ABBREVIATIONS USED IN REMARKS
   TC - TEMPERATURES IN CELSIUS
  WCI - WIND CHILL INDEX
   HX - HEAT INDEX
  VSB - VISIBILITY
$$


USA.gov is the U.S. government's official web portal to all federal, state and local government web resources and services.